This is the latest recevied weather packets stored in our database for station/object YN8O-13. If no packets are shown the sender has not sent any weather packets the latest 10 day(s).
| Time | Temp. | Humidity | Pressure | Rain* | Wind** | Luminosity | Snow |
|---|---|---|---|---|---|---|---|
| 1778186695 | 33.89° C | 23% | 1008 hPa | 0 mm | - | - | - |
| 1778186095 | 34.44° C | 23% | 1008 hPa | 0 mm | - | - | - |
| 1778185494 | 33.89° C | 25% | 1009 hPa | 0 mm | - | - | - |
| 1778184894 | 33.89° C | 26% | 1009 hPa | 0 mm | - | - | - |
| 1778184294 | 33.89° C | 26% | 1009 hPa | 0 mm | - | - | - |
| 1778183694 | 33.89° C | 24% | 1009 hPa | 0 mm | - | - | - |
| 1778183093 | 33.89° C | 24% | 1009 hPa | 0 mm | - | - | - |
| 1778182493 | 33.89° C | 24% | 1009 hPa | 0 mm | - | - | - |
| 1778181893 | 32.78° C | 28% | 1010 hPa | 0 mm | - | - | - |
| 1778181292 | 32.78° C | 28% | 1010 hPa | 0 mm | - | - | - |
| 1778180692 | 32.78° C | 28% | 1010 hPa | 0 mm | - | - | - |
| 1778180091 | 32.78° C | 25% | 1010 hPa | 0 mm | - | - | - |
| 1778179491 | 32.78° C | 26% | 1011 hPa | 0 mm | - | - | - |
| 1778178890 | 32.78° C | 26% | 1011 hPa | 0 mm | - | - | - |
| 1778178290 | 31.11° C | 30% | 1012 hPa | 0 mm | - | - | - |
| 1778177690 | 31.11° C | 30% | 1012 hPa | 0 mm | - | - | - |
| 1778177089 | 31.11° C | 30% | 1012 hPa | 0 mm | - | - | - |
| 1778176489 | 31.67° C | 29% | 1012 hPa | 0 mm | - | - | - |
| 1778175889 | 31.11° C | 32% | 1012 hPa | 0 mm | - | - | - |
| 1778175288 | 31.11° C | 32% | 1012 hPa | 0 mm | - | - | - |
| 1778174688 | 30° C | 37% | 1013 hPa | 0 mm | - | - | - |
| 1778174087 | 30° C | 37% | 1013 hPa | 0 mm | - | - | - |
| 1778173487 | 30° C | 37% | 1013 hPa | 0 mm | - | - | - |
| 1778172887 | 30° C | 37% | 1013 hPa | 0 mm | - | - | - |
| 1778172286 | 30° C | 42% | 1013 hPa | 0 mm | - | - | - |
* Rain latest hour (hover to see other rain measurements)
** Current wind speed in m/s (hover to see current wind gust speed)